Location: Whelan
(46.7841°N, 117.1166°W)
Time: 03:21:46
(UTC+00:00)

Envisat - Visible Passes

Search period start: 01 February 2023 00:00
Search period end: 11 February 2023 00:00
Orbit: 763 x 765 km, 98.2° (Epoch: 31 January)

Date Brightness Start Highest point End Pass type
(mag) Time Alt. Az. Time Alt. Az. Time Alt. Az.
01 Feb 4.9 12:00:07 10° NNE 12:01:53 22° NNE 12:01:53 22° NNE visible
01 Feb 4.8 13:40:32 10° NNW 13:42:05 14° NW 13:42:05 14° NW visible
02 Feb 5.4 11:23:20 10° NNE 11:24:33 17° NE 11:24:33 17° NE visible
02 Feb 4.5 13:02:33 10° N 13:04:44 22° NNW 13:04:44 22° NNW visible
03 Feb 6.0 10:47:11 10° NE 10:47:13 10° NE 10:47:13 10° NE visible
03 Feb 4.4 12:25:08 10° N 12:27:24 27° N 12:27:24 27° N visible
03 Feb 5.0 14:07:33 10° NW 14:07:36 10° NW 14:07:36 10° NW visible
04 Feb 4.8 11:48:04 10° NNE 11:50:05 24° NNE 11:50:05 24° NNE visible
04 Feb 4.6 13:28:04 10° NNW 13:30:15 18° NW 13:30:15 18° NW visible
05 Feb 5.5 11:11:26 10° NNE 11:12:44 17° NE 11:12:44 17° NE visible
05 Feb 4.2 12:50:18 10° N 12:52:56 27° NNW 12:52:56 27° NNW visible
06 Feb 4.3 12:13:00 10° N 12:15:36 31° N 12:15:36 31° N visible
06 Feb 4.8 13:54:05 10° NNW 13:55:47 13° NW 13:55:47 13° NW visible
07 Feb 4.9 11:36:04 10° NNE 11:38:17 25° NE 11:38:17 25° NE visible
07 Feb 4.3 13:15:41 10° N 13:18:28 22° NW 13:18:28 22° NW visible
08 Feb 5.6 10:59:37 10° NE 11:00:57 16° NE 11:00:57 16° NE visible
08 Feb 4.0 12:38:05 10° N 12:41:09 33° NNW 12:41:09 33° NNW visible
09 Feb 4.2 12:00:54 10° NNE 12:03:49 35° NNE 12:03:49 35° NNE visible
09 Feb 4.6 13:41:23 10° NNW 13:44:00 16° NW 13:44:00 16° NW visible
10 Feb 4.9 11:24:06 10° NNE 11:26:30 25° NE 11:26:30 25° NE visible
10 Feb 4.0 13:03:22 10° N 13:06:42 27° NW 13:06:42 27° NW visible
